GFSNW_prec_cthk_273.txt.gz
RH
40 43 53 64 64 64 61 58 57 42 38 42 52 52 36 30 28 35 32 25 23 23 23 22 21 22 20 19 20 24 25 27 33 24 20 20 24 25 27 37 45 45 44 33
42 39 44 56 66 68 66 62 56 56 46 43 48 46 40 34 32 35 35 28 25 25 24 26 24 23 21 22 24 26 27 30 35 28 26 22 23 27 26 31 38 45 40 30
27 34 38 47 64 67 70 69 63 63 66 53 42 41 36 40 30 31 40 35 29 27 28 29 33 28 26 24 26 21 24 28 26 30 25 23 22 26 28 26 39 37 38 24
30 29 33 40 54 65 73 79 67 54 64 70 58 56 32 36 36 30 33 37 34 30 37 37 38 35 32 29 29 25 23 30 29 25 24 23 24 25 28 27 25 31 27 29
43 25 30 32 54 58 66 78 82 69 60 54 73 71 47 35 38 36 29 34 37 34 36 37 42 35 35 31 30 30 27 30 29 34 25 24 23 27 28 25 25 28 26 29
57 35 23 27 50 63 61 67 77 84 73 64 58 68 63 39 41 40 31 29 34 39 35 37 39 37 37 37 37 36 35 34 33 39 32 28 31 24 25 25 23 23 26 22
56 56 32 24 33 63 65 64 69 76 83 79 65 57 58 58 42 44 43 30 35 36 38 37 40 42 43 41 41 37 41 39 37 45 31 31 20 17 19 20 21 21 20 20
57 59 56 38 27 34 64 66 67 71 72 84 80 70 66 64 55 49 54 47 38 37 41 46 50 52 51 49 44 40 37 39 47 42 42 25 19 17 22 20 17 16 18 20
70 66 68 66 45 31 42 64 70 75 71 68 81 83 74 67 69 50 42 51 50 48 50 53 58 60 55 56 50 47 43 38 37 50 39 33 17 18 18 20 24 15 15 19
72 72 77 73 70 49 43 51 69 76 76 65 73 81 85 83 78 69 47 50 60 58 60 62 60 60 51 56 53 54 55 52 49 53 48 32 19 22 22 30 23 15 15 16
74 75 80 82 76 70 56 40 52 71 77 72 70 74 79 85 90 88 66 60 60 73 69 64 63 62 57 53 51 49 51 54 57 55 53 39 20 24 24 22 19 17 15 16
71 72 78 83 84 85 78 53 40 57 75 75 70 68 72 76 90 96 90 70 57 62 74 67 63 66 59 53 59 49 54 46 47 43 39 27 26 25 22 22 21 19 17 18
73 74 79 90 97 96 90 73 55 51 71 66 62 60 68 70 75 95 93 83 73 73 74 74 65 59 55 54 47 45 44 43 43 41 31 29 26 24 24 25 23 21 20 19
81 78 80 87 95 97 99 82 73 55 57 67 54 58 65 64 69 75 86 84 90 82 80 78 75 66 58 57 47 40 38 39 39 39 30 27 25 24 25 26 25 23 22 20
81 83 83 90 96 98 99 94 81 70 58 50 48 55 53 57 68 68 73 88 94 98 88 82 77 76 71 61 57 48 40 38 38 36 25 26 24 24 26 26 25 25 25 25
81 84 92 92 96 99 99 99 87 72 73 66 51 32 35 50 57 77 72 82 91 97 98 88 75 71 72 74 60 44 40 36 34 30 26 27 28 29 27 27 28 28 28 28
71 84 93 94 96 99 97 88 65 74 90 85 76 47 22 40 52 65 73 80 89 93 98 97 89 78 74 72 64 51 43 40 36 32 29 30 30 28 29 30 31 31 30 30
72 89 95 97 98 99 98 93 76 83 97 93 87 59 32 40 53 66 67 74 86 96 98 98 97 94 83 76 51 54 49 44 42 37 33 33 33 35 33 33 35 34 33 32
76 91 98 99 99 82 79 87 92 92 93 93 84 63 44 30 56 71 77 76 94 97 98 96 98 95 95 53 47 50 53 48 43 41 36 35 36 37 38 36 35 33 33 32
85 97 99 95 98 89 98 99 99 98 89 90 77 60 42 29 59 84 85 81 90 95 90 95 99 96 73 74 60 47 52 56 53 45 39 37 36 38 38 36 34 34 32 30
89 95 95 99 96 98 97 98 97 96 84 73 54 51 39 33 61 95 92 84 91 97 95 97 97 85 59 62 66 57 48 51 53 50 42 39 37 35 35 35 35 37 37 35
71 88 87 92 98 98 98 95 87 83 73 64 55 45 44 42 74 93 98 90 89 97 80 96 93 56 52 56 56 55 49 44 51 53 48 44 40 38 36 34 34 34 34 33
91 98 98 92 97 95 86 75 81 75 59 42 35 40 44 53 70 86 95 98 82 91 96 86 56 45 49 50 52 54 52 43 43 48 48 48 43 40 41 41 39 36 36 36
88 90 94 92 93 79 71 65 61 56 44 37 43 50 56 57 68 72 98 86 98 85 88 72 43 41 40 42 45 48 50 46 43 39 42 45 43 42 42 44 44 44 43 41
84 84 89 86 77 69 63 61 54 44 45 52 56 61 64 68 81 79 87 98 95 88 62 34 34 37 38 38 38 39 38 37 35 34 29 31 37 43 44 45 44 46 45 42
87 82 81 79 79 83 73 50 44 44 50 53 57 80 81 80 91 89 97 93 86 52 35 28 33 33 35 35 36 36 35 36 35 33 30 30 35 42 46 47 45 43 46 47
86 83 82 80 76 72 58 54 56 60 54 54 64 84 93 90 93 92 88 87 51 36 32 30 34 29 31 33 32 32 34 36 38 36 33 32 34 39 43 46 45 46 48 51

GFSNW_prec_cthk_279.txt.gz
RH
45 41 31 35 39 43 54 54 59 50 43 40 48 58 50 37 33 38 43 34 28 25 25 24 24 21 17 16 17 19 19 22 24 22 20 20 22 21 22 33 37 36 31 25
45 54 41 30 37 45 54 59 61 57 54 50 49 47 48 43 38 36 43 40 34 28 27 26 25 24 21 18 19 20 20 26 30 27 25 26 24 23 23 24 29 36 32 22
51 55 50 31 37 44 55 59 64 64 68 54 45 45 40 42 39 39 38 46 39 37 31 30 29 28 26 22 21 21 20 23 23 26 22 22 24 24 22 18 24 24 24 15
55 54 56 44 32 48 55 58 64 65 72 67 59 46 37 37 39 40 40 42 46 44 42 37 33 31 30 28 27 24 24 25 23 24 23 21 21 24 23 18 18 16 15 16
53 53 52 48 29 46 55 58 62 70 71 71 74 63 51 34 36 44 39 45 46 50 47 40 40 33 30 29 28 27 27 33 28 35 29 23 21 23 24 23 21 18 17 18
62 64 62 61 39 31 54 62 64 63 68 69 71 70 62 51 36 42 43 45 42 50 54 46 41 37 34 32 30 28 27 33 34 37 30 28 29 20 23 22 21 20 20 15
60 62 66 66 60 34 46 59 65 67 63 69 77 70 68 66 57 52 56 51 48 45 58 53 48 45 42 37 37 36 33 30 32 41 32 42 21 18 18 19 19 19 17 16
64 66 67 71 68 54 35 55 65 66 66 64 70 81 77 74 69 62 70 66 58 51 55 64 62 60 54 48 44 41 38 37 44 43 38 24 18 18 19 21 17 17 18 17
75 73 74 76 79 78 57 43 55 62 69 66 66 72 85 84 82 68 67 74 74 68 64 63 73 64 56 57 52 48 45 42 43 50 40 38 20 19 18 17 19 14 16 17
78 84 79 79 79 79 79 66 45 47 67 67 68 69 75 86 93 82 68 78 84 80 73 72 69 64 55 56 51 53 52 53 51 51 42 28 20 21 20 21 18 17 17 17
82 87 83 86 87 87 86 82 72 53 45 52 65 65 70 77 87 97 83 78 87 89 85 78 68 67 59 55 51 48 48 52 52 53 48 37 22 23 22 19 18 18 18 17
85 88 83 82 87 88 88 85 87 75 61 39 37 52 59 66 77 86 96 91 84 85 83 77 75 65 65 57 59 51 50 43 47 41 36 28 25 22 22 20 20 19 19 17
84 85 85 84 89 91 91 88 89 82 74 60 43 21 32 57 64 76 86 97 97 93 91 87 79 77 66 64 57 50 49 45 43 39 34 30 28 25 24 23 22 21 21 20
76 81 87 88 88 89 96 97 93 90 82 72 53 44 26 28 45 58 66 87 97 98 97 97 91 80 70 66 62 58 47 45 42 40 35 33 31 28 28 27 24 22 22 21
61 70 75 83 90 88 93 97 93 99 91 78 63 43 30 23 26 42 58 68 90 97 98 98 97 90 80 73 67 60 56 50 44 42 34 32 32 32 32 29 26 24 24 23
52 57 61 75 89 97 96 97 88 90 99 88 71 59 45 34 26 26 45 69 75 91 97 98 97 95 96 84 66 56 54 53 46 41 38 36 35 36 33 30 28 27 27 27
52 59 61 67 84 97 97 88 85 86 93 90 88 66 50 38 32 26 27 54 71 76 92 94 96 98 96 96 77 59 58 54 51 49 41 39 35 34 34 32 32 30 29 28
59 61 67 69 75 93 96 87 90 97 99 97 93 64 45 44 39 36 29 30 53 70 76 84 91 95 93 91 72 70 61 56 57 54 47 42 41 38 36 33 31 32 31 29
70 69 66 72 82 83 78 97 97 95 98 97 78 56 51 51 49 46 45 41 45 48 64 69 81 89 90 63 67 72 66 58 51 55 55 52 44 40 37 35 31 31 31 31
93 88 84 76 69 76 92 99 98 99 86 81 59 56 52 50 55 57 57 60 57 58 41 51 74 64 52 61 59 59 57 58 59 57 56 55 51 48 41 36 32 31 32 32
99 94 80 72 83 88 98 98 96 78 80 68 56 54 53 57 53 54 53 51 66 80 49 52 51 42 39 45 55 57 56 56 58 51 51 52 55 55 49 42 37 38 36 35
96 96 83 88 98 97 98 95 82 82 67 59 55 57 59 60 57 61 59 58 60 63 94 81 57 31 32 35 42 50 54 55 55 54 49 48 49 54 56 49 43 42 43 41
99 98 95 86 98 93 81 73 66 60 52 62 61 59 69 71 63 68 62 70 58 57 74 91 47 24 29 31 33 40 46 50 49 49 56 53 48 51 54 54 52 47 41 43
98 93 87 86 84 62 50 45 45 48 52 57 63 70 69 73 68 68 64 55 49 62 65 66 44 45 34 28 28 27 36 40 46 46 53 53 53 50 51 50 52 53 50 45
86 74 75 66 55 50 49 53 52 53 60 66 74 77 78 80 75 60 48 52 47 37 41 46 67 63 57 51 46 29 29 40 47 48 49 48 51 47 47 50 51 51 52 52
77 67 65 56 53 54 50 50 57 65 74 77 79 90 89 78 67 64 50 30 31 45 62 75 80 76 59 50 50 37 30 33 39 48 46 45 45 45 48 51 47 50 51 50
72 68 57 55 52 50 50 53 58 69 73 77 82 81 71 61 59 49 30 24 32 47 54 65 79 82 70 57 52 45 41 38 40 45 49 47 48 48 49 49 51 52 52 52

GFSNW_prec_cthk_285.txt.gz
RH
34 37 36 39 37 24 39 43 53 51 46 52 39 49 50 46 42 34 42 39 34 29 28 22 22 21 21 20 22 20 20 26 27 21 21 21 21 22 28 52 51 31 44 46
34 34 36 40 43 29 43 49 52 58 52 60 57 49 48 52 47 39 38 40 35 30 30 30 25 24 26 22 23 21 24 26 33 31 25 21 22 20 20 26 30 47 40 29
35 40 48 49 51 40 38 53 57 54 64 55 60 56 49 53 49 47 42 49 46 38 33 31 29 29 34 26 24 25 25 24 27 23 19 18 19 21 21 23 34 20 22 23
37 44 48 49 51 47 37 56 57 68 65 56 56 53 51 46 48 46 47 45 46 42 44 35 32 31 38 30 26 28 28 27 28 23 25 20 16 16 21 21 21 21 18 18
35 46 46 55 56 53 51 58 59 60 62 65 59 59 55 53 47 46 44 45 40 48 46 39 37 34 40 35 28 29 30 29 29 39 26 21 21 16 16 18 19 17 16 15
38 42 48 62 64 64 64 60 55 58 57 59 61 70 61 55 53 45 42 46 44 46 55 52 49 47 43 41 36 30 35 35 37 39 29 22 25 18 16 17 18 15 15 12
41 42 51 61 65 65 67 67 64 67 59 65 71 68 68 70 62 59 46 46 48 63 60 54 46 42 43 46 45 32 36 37 42 47 35 47 24 17 15 18 18 16 13 14
37 50 56 63 69 74 76 76 63 63 63 65 70 71 64 64 65 66 61 58 48 57 57 58 66 56 56 54 51 43 35 42 61 58 39 30 21 19 17 17 16 16 15 14
37 48 65 71 73 73 78 77 77 64 70 62 69 66 64 65 70 77 69 70 64 57 55 63 79 65 49 50 53 52 44 46 57 54 50 45 24 21 14 17 22 17 14 16
38 45 62 72 76 79 83 83 85 73 70 51 69 66 76 75 72 84 83 80 70 64 61 71 69 59 48 55 53 58 53 53 69 61 45 34 25 22 17 24 20 15 16 15
35 43 58 71 80 87 86 85 87 89 81 66 57 60 70 74 73 84 96 92 84 80 74 66 64 59 59 58 57 56 54 56 61 60 61 47 31 25 21 22 20 18 17 17
38 40 55 70 82 92 91 88 89 92 86 78 68 46 50 72 76 73 89 97 98 97 86 67 62 62 59 68 68 64 66 53 49 46 44 39 34 24 22 23 23 21 21 18
46 39 49 70 82 94 98 98 93 98 94 78 72 59 52 43 61 69 79 90 98 98 93 93 86 74 66 65 67 70 70 66 57 56 48 43 36 32 26 21 22 21 19 19
66 40 44 60 74 89 92 97 98 96 92 81 74 68 46 36 47 62 71 84 85 95 97 98 94 87 79 75 68 67 73 68 69 64 56 47 43 34 34 30 27 24 22 22
83 57 41 53 64 75 91 97 92 95 88 96 95 86 57 48 42 50 60 66 78 88 96 96 93 84 92 85 82 79 66 70 73 63 61 53 44 36 33 33 32 29 27 25
96 80 50 46 58 69 86 97 92 88 92 92 89 88 76 62 46 42 41 57 63 78 87 92 89 88 91 91 87 70 71 71 74 69 66 64 50 41 36 31 30 32 29 28
95 91 65 50 55 67 78 92 98 87 88 87 84 82 82 64 59 53 49 50 61 68 83 83 88 89 97 95 77 69 73 69 75 73 69 69 61 48 41 36 34 31 30 30
92 96 77 57 57 64 73 76 94 98 95 90 89 83 82 59 60 67 55 55 54 67 66 65 75 86 92 85 60 64 68 77 74 74 67 68 65 62 47 42 38 35 33 34
95 98 87 73 67 64 63 80 92 95 97 95 80 80 86 72 63 73 67 63 68 53 51 62 76 78 78 57 60 62 66 86 85 74 67 64 60 62 59 54 45 40 38 36
97 99 94 80 66 68 73 87 97 98 98 83 77 79 90 82 73 80 78 74 66 68 62 56 48 39 43 53 60 67 71 68 71 73 68 66 59 57 60 62 58 47 40 38
99 98 91 87 76 79 85 88 88 91 92 73 67 76 85 82 86 84 83 82 76 68 58 61 55 42 35 35 43 51 62 68 70 67 67 67 63 61 60 60 62 57 48 42
97 98 96 98 95 92 82 77 77 83 76 75 67 70 71 86 75 74 76 71 58 48 45 52 48 45 55 55 48 50 48 45 49 59 65 61 59 59 63 62 61 61 57 49
99 99 97 92 91 96 86 72 66 68 65 72 66 75 73 79 78 77 74 75 58 49 50 45 33 34 48 54 61 55 47 41 43 47 50 55 54 60 58 58 57 61 64 60
98 97 92 88 93 71 68 59 66 72 74 63 62 72 74 79 86 78 73 60 58 53 43 38 48 45 65 63 65 66 60 55 51 48 51 50 49 50 52 50 52 52 53 57
97 92 88 72 68 71 65 66 68 76 65 67 77 79 78 85 89 78 74 75 59 43 46 57 59 63 70 69 68 67 60 58 58 55 51 53 47 46 45 45 49 51 49 49
96 79 76 76 76 80 79 73 76 71 66 68 77 86 82 86 77 72 72 60 53 58 59 51 59 57 67 76 80 70 59 55 53 49 48 43 43 40 42 48 46 51 55 55
92 73 71 80 84 84 80 67 70 70 67 76 79 79 75 68 71 66 65 66 61 65 62 61 59 62 51 54 50 50 49 53 50 44 43 42 42 45 42 45 50 51 58 61

GFSNW_prec_cthk_288.txt.gz
RH
33 32 32 32 31 32 36 42 45 57 53 54 52 50 43 43 46 44 37 46 40 38 33 29 27 22 21 21 24 25 33 39 37 25 22 27 25 29 32 56 52 40 48 58
33 34 33 36 36 37 31 44 43 46 65 62 58 55 41 46 49 53 43 40 42 41 40 41 31 29 24 24 28 32 33 41 46 34 30 24 25 24 30 34 37 48 52 38
33 32 37 43 45 44 36 48 51 47 64 62 62 66 52 46 47 61 50 44 43 47 40 40 43 30 32 28 29 31 31 33 37 32 25 20 21 22 22 31 40 28 31 19
31 31 39 45 50 50 44 50 50 64 65 62 61 62 69 53 47 54 50 50 44 59 53 44 44 41 40 30 36 32 32 36 33 33 24 25 21 18 20 25 23 33 21 17
35 33 37 44 50 55 54 55 54 57 57 62 68 58 60 67 58 53 58 54 54 59 60 45 44 39 50 36 31 42 33 37 33 41 28 29 29 22 18 22 18 23 21 20
36 36 39 41 53 61 62 66 65 60 50 59 68 73 64 55 62 56 54 62 51 52 55 66 61 48 50 44 32 34 43 39 40 42 32 39 30 26 21 16 18 19 23 17
35 35 38 47 56 59 65 73 76 68 61 55 61 72 76 77 58 63 59 60 60 53 61 65 69 62 52 51 42 36 42 47 41 55 41 48 28 21 22 20 16 18 18 17
36 34 37 52 55 59 66 72 79 75 61 60 63 74 83 67 70 73 74 63 59 66 65 70 77 76 70 56 47 41 42 51 54 65 50 36 30 21 18 18 18 16 17 19
34 34 35 49 55 59 66 71 80 85 73 59 69 78 74 74 67 75 68 68 71 61 69 76 90 68 56 56 45 45 44 56 59 64 55 48 31 25 21 22 23 18 18 19
36 35 37 45 56 64 71 77 85 87 84 60 66 66 77 78 79 79 90 85 82 69 66 78 79 65 51 54 47 54 55 60 73 72 58 38 30 23 25 28 22 19 20 19
47 38 37 44 54 65 70 82 89 91 91 71 69 72 68 73 81 87 92 97 89 96 82 70 65 62 55 60 53 48 46 59 69 75 71 52 29 27 25 22 21 19 19 21
65 50 39 45 53 64 76 80 88 96 99 84 87 74 60 70 74 81 84 98 98 97 95 78 67 62 55 56 68 63 61 43 49 58 61 46 33 30 26 26 23 21 19 22
70 69 43 43 53 63 74 86 90 93 87 72 68 60 60 59 64 66 86 91 98 98 97 97 93 77 58 56 56 70 82 66 50 49 50 51 42 37 29 28 26 23 20 19
72 79 68 44 50 64 71 84 96 94 91 94 75 81 77 61 51 61 61 78 92 94 97 93 95 89 88 67 61 68 79 79 77 64 57 51 50 42 33 30 28 25 21 20
86 85 83 59 48 56 62 79 90 93 98 94 96 79 84 81 55 49 56 62 84 87 92 94 96 92 95 88 82 69 65 73 85 77 71 65 61 54 40 33 31 28 24 21
90 96 95 86 54 52 64 72 72 85 91 93 78 80 89 70 58 54 57 55 64 76 86 93 92 86 88 95 86 68 73 74 70 72 74 73 68 67 55 40 35 35 32 28
81 83 94 94 74 53 62 70 87 98 93 88 80 75 73 68 77 65 52 69 69 69 82 81 86 86 92 86 71 64 69 69 72 70 75 70 68 67 59 49 42 36 36 34
85 81 93 96 81 57 64 66 70 95 96 90 80 71 78 81 76 71 63 57 68 75 70 73 74 80 81 74 56 61 67 73 73 78 75 79 73 72 73 61 52 45 39 33
79 83 99 99 89 64 58 71 81 85 91 98 81 69 85 90 71 79 77 72 73 64 62 60 63 67 68 58 56 58 61 67 76 76 77 76 70 70 80 70 59 52 48 38
87 86 99 84 77 61 70 82 86 84 86 80 75 78 88 90 83 82 83 86 78 74 68 64 56 45 51 54 57 61 64 67 70 81 83 78 79 74 69 67 65 68 60 49
98 98 98 94 85 78 88 85 76 78 80 63 50 54 72 93 95 90 86 86 83 81 64 60 55 51 41 44 41 37 48 59 65 66 71 81 81 75 68 66 70 73 76 67
96 97 99 98 96 88 88 82 75 79 80 71 62 46 52 74 90 85 84 80 73 63 54 57 51 47 49 61 64 57 52 46 54 62 68 74 77 74 74 70 70 68 73 73
97 99 98 94 94 96 83 72 59 60 71 72 68 70 69 80 73 81 77 76 64 54 53 44 46 50 47 52 54 64 63 68 58 43 53 68 74 78 74 70 70 74 69 71
98 97 91 88 93 73 62 57 53 54 60 61 78 80 85 80 82 79 76 64 60 48 45 55 63 64 63 62 70 72 69 61 57 54 55 54 60 63 65 64 69 71 72 71
98 94 88 65 57 60 60 62 66 60 68 84 75 70 69 77 75 73 70 70 63 54 53 62 68 59 55 46 64 81 86 68 56 57 48 48 53 54 52 52 54 55 61 61
93 79 77 67 62 64 70 69 65 81 88 86 62 63 87 84 81 74 68 60 54 53 58 64 58 64 40 36 40 56 59 65 50 48 48 43 43 48 49 51 54 55 53 53
85 80 77 81 81 78 80 78 82 84 79 70 69 85 82 78 74 63 61 57 53 56 56 52 50 69 50 44 46 42 40 43 39 38 39 44 41 39 35 34 42 55 53 50